Regional Weather Roundup
Issued by NWS

Home | Current Version | Previous Version | Graphics & Text | Print | Product List | Glossary On
Versions: 1 2 3 4 5 6 7 8 9 10 11 12 13 14 15 16 17 18 19 20 21 22 23 24 25 26 27 28 29 30 31 32 33 34 35 36 37 38 39 40 41 42 43 44 45 46 47 48 49 50
479
ASUS43 KLOT 240202
RWRIL

ILLINOIS REGIONAL WEATHER ROUNDUP
NATIONAL WEATHER SERVICE CHICAGO/ROMEOVILLE IL
900 PM CDT THU MAR 23 2017

NOTE: "FAIR" INDICATES FEW OR NO CLOUDS BELOW 12,000 FEET WITH NO
SIGNIFICANT WEATHER AND/OR OBSTRUCTIONS TO VISIBILITY.

* THESE STATIONS ARE NOT UNDER NWS QUALITY CONTROL. THEY ALSO MAY NOT
  REPORT WEATHER SUCH AS PRECIPITATION OR FOG.

ILZ001-002-007-009-015-016-024-240300-
NORTHWEST ILLINOIS

CITY           SKY/WX    TMP DP  RH WIND       PRES   REMARKS
MOLINE         CLOUDY    44  37  76 SE9G18    29.92R
STERLING*      CLEAR     43  33  68 SE10      29.97R
SAVANNA*       CLOUDY    42  32  67 SE10      29.96S
$$

ILZ003-004-008-010-011-017-018-240300-
NORTH CENTRAL ILLINOIS

CITY           SKY/WX    TMP DP  RH WIND       PRES   REMARKS
ROCKFORD       CLOUDY    44  31  60 S16       30.03S
FREEPORT*      PTCLDY    39  32  77 E8        30.00F WCI  33
ROCHELLE*      PTCLDY    43  31  61 SE20      30.01R
DE KALB*       MOCLDY    45  30  55 SE20G25   30.02R
$$

ILZ005-006-012>014-019>023-240300-
NORTHEAST ILLINOIS

CITY           SKY/WX    TMP DP  RH WIND       PRES   REMARKS
CHICAGO-OHARE  CLOUDY    47  33  58 S14       30.02F
CHICAGO-MIDWAY CLOUDY    49  32  52 SE14G21   30.04F
AURORA         MOCLDY    47  30  51 SE15      30.02F
LANSING*       CLOUDY    47  36  65 S7        30.08F
JOLIET*        MOCLDY    49  31  50 S12G17    30.04F
WAUKEGAN       CLOUDY    44  34  67 S12       30.04R
DUPAGE AIRPORT CLOUDY    46  33  60 S15G21    30.02S
WHEELING       CLOUDY    46  33  60 S13G22    30.05F
MORRIS*        MOCLDY    46  31  56 S18G24    30.01F
NORTHERLY ISL    N/A     46  32  58 SE10        N/A
$$

LMZ740>746-240300-
SOUTHERN LAKE MICHIGAN

STATION/POSITION SKY/WX   TEMP    WIND        PRES    VSBY  WAVE
                          AIR SEA DIR/SP/G                  HT/PER
                          (F)     (DEG/KT/KT) (MB)    (MI)  (FT/S)
HARRISON CRIB              45     170/ 20/ 21   N/A
BURNHAM HARBOR             45     150/ 10/ 14   N/A
CALUMET HARBOR             48     150/  8/ 12 1018.1S
BURNS HARBOR               48     160/ 11/ 18 1019.0R
MICHIGAN CITY              47     150/  6/  8   N/A
$$

ILZ025>027-034>036-040-047-049-050-058-095>099-240300-
WEST-CENTRAL ILLINOIS

CITY           SKY/WX    TMP DP  RH WIND       PRES   REMARKS
QUINCY         CLEAR     53  41  63 S16       29.91S
GALESBURG*     CLOUDY    44  39  84 SE15G23   29.91S
MACOMB*        CLEAR     44  41  89 SE13      29.95F
JACKSONVILLE*  CLEAR     49  42  74 SE14      29.96S
PITTSFIELD*    CLEAR     53  43  70 SE15      29.94F
$$

ILZ028>032-037-038-041>044-048-051>054-059>061-240300-
CENTRAL ILLINOIS

CITY           SKY/WX    TMP DP  RH WIND       PRES   REMARKS
PONTIAC        PTCLDY    45  34  65 SE16      30.04F
BLOOMINGTON    CLEAR     44  33  65 SE20      30.03F
DECATUR        CLEAR     47  36  65 S14       30.04F
PEORIA         CLEAR     45  37  73 S14       29.99F
SPRINGFIELD    CLEAR     48  41  76 SE22G31   29.99F
TAYLORVILLE    NOT AVBL
$$

ILZ033-039-045-046-055>057-062-063-240300-
EAST-CENTRAL ILLINOIS

CITY           SKY/WX    TMP DP  RH WIND       PRES   REMARKS
CHAMPAIGN      CLEAR     47  32  56 SE18G25   30.07F
RANTOUL*       PTCLDY    48  34  58 S14       30.08R
MATTOON        CLEAR     48  36  63 SE13      30.08S
PARIS*         CLOUDY    48  35  60 SE18      30.11F
$$

ILZ079-100>102-240300-
SOUTHWEST ILLINOIS

CITY           SKY/WX    TMP DP  RH WIND       PRES   REMARKS
ALTON          CLEAR     52  43  71 SE12G20   30.03S
BELLEVILLE     CLEAR     53  44  70 SE10      30.04S
CAHOKIA*       CLEAR     59  42  53 S12G20    30.03R
SPARTA*        CLEAR     55  43  63 SE12      30.08S
$$

ILZ064>066-069>071-074>076-080>082-084>086-088>090-092>094-240300-
SOUTH-CENTRAL ILLINOIS

CITY           SKY/WX    TMP DP  RH WIND       PRES   REMARKS
CARBONDALE     CLEAR     51  44  77 SE7       30.10S
CAIRO*         CLEAR     53  46  75 E5        30.11S
EFFINGHAM*     CLEAR     47  40  78 SE15G21   30.11F
MARION         CLEAR     52  43  71 SE7       30.12S
MT. VERNON     CLEAR     49  42  77 VRB3      30.12F
CENTRALIA*     CLEAR     50  43  76 SE16      30.09S
SALEM*         CLEAR     51  41  69 SE13      30.10S
$$

ILZ067-068-072-073-078-083-087-091-240300-
SOUTHEAST ILLINOIS

CITY           SKY/WX    TMP DP  RH WIND       PRES   REMARKS
LAWRENCEVILLE  CLEAR     47  37  68 SE9       30.15F
FLORA*         CLEAR     48  42  78 SE8       30.12F
FAIRFIELD*     CLEAR     47  41  78 SE3       30.12F
HARRISBURG*    CLEAR     49  44  80 E10       30.14S
ROBINSON*      CLEAR     48  34  59 SE12      30.15F
CARMI*         CLEAR     47  42  84 SE10      30.14F
$$

ABBREVIATIONS USED IN REMARKS
   TC - TEMPERATURE IN CELSIUS
  WCI - WIND CHILL INDEX
   HX - HEAT INDEX
  VSB - VISIBILITY
$$





USA.gov is the U.S. government's official web portal to all federal, state and local government web resources and services.